New Orleans Lakefront, LA

4:26 PM CDT on May 24, 2018 (GMT -0500)
Lakefront

Weather History for KNEW - April, 2013

Change the Weather History Date:

Saturday, April 6, 2013

  Actual Average Record
Temperature  
Mean Temperature 60 °F 67 °F  
Max Temperature 72 °F 76 °F 89 °F (1955)
Min Temperature 48 °F 58 °F 40 °F (1966)
Degree Days  
Heating Degree Days 5 2  
Month to date heating degree days 22 12  
Since 1 July heating degree days 1120 1257  
Cooling Degree Days 0 4  
Month to date cooling degree days 3 21  
Year to date cooling degree days 71 121  
Growing Degree Days 16 (Base 50)    
Moisture  
Dew Point 52 °F    
Average Humidity 71    
Maximum Humidity 93    
Minimum Humidity 49    
Precipitation  
Precipitation 0.00 in 0.14 in 1.40 in (1983)
Month to date precipitation 1.94 0.90  
Year to date precipitation 16.82 15.90  
Snow  
Snow 0.00 in - - ()
Month to date snowfall 0.0  
Since 1 July snowfall 0.0  
Snow Depth 0.00 in    
Sea Level Pressure  
Sea Level Pressure 30.10 in    
Wind  
Wind Speed 7 mph (SE)    
Max Wind Speed 16 mph    
Max Gust Speed 22 mph    
Visibility 10 miles    
Events      
T = Trace of Precipitation, MM = Missing Value Source: NWS Daily Summary

Daily Weather History Graph

Daily Weather History Graph

Search for Another Location

Airport or City:

Astronomy

Apr. 06, 2013 Rise Set
Actual Time 6:43 AM CDT 7:22 PM CDT
Civil Twilight 6:18 AM CDT 7:46 PM CDT
Nautical Twilight 5:50 AM CDT 8:14 PM CDT
Astronomical Twilight 5:21 AM CDT 8:43 PM CDT
Moon 4:11 AM CDT (4/6) 4:04 PM CDT (4/6)
Length of Visible Light 13h 27m
Length of Day
12h 38m
Waning Crescent, 15% of the Moon is Illuminated
Apr 6
Waning Crescent
Apr 10
New
Apr 18
First Quarter
Apr 25
Full
May 2
Last Quarter

Hourly Weather History & Observations

Time (CDT) Temp. Dew Point Humidity Pressure Visibility Wind Dir Wind Speed Gust Speed Precip Events Conditions
12:53 AM 64.9 °F 51.1 °F 61% 30.11 in 10.0 mi NNE 12.7 mph - N/A   Clear
1:53 AM 64.0 °F 52.0 °F 65% 30.11 in 10.0 mi NE 10.4 mph - N/A   Clear
2:53 AM 64.0 °F 51.1 °F 63% 30.10 in 10.0 mi NE 10.4 mph - N/A   Clear
3:53 AM 63.0 °F 51.1 °F 65% 30.08 in 10.0 mi East 11.5 mph - N/A   Clear
4:53 AM 60.1 °F 50.0 °F 69% 30.10 in 10.0 mi East 3.5 mph - N/A   Clear
5:53 AM 57.0 °F 48.0 °F 72% 30.11 in 10.0 mi Calm Calm - N/A   Clear
6:53 AM 57.0 °F 48.9 °F 74% 30.12 in 10.0 mi Calm Calm - N/A   Clear
7:53 AM 62.1 °F 53.1 °F 72% 30.13 in 10.0 mi ESE 4.6 mph - N/A   Clear
8:53 AM 66.0 °F 53.1 °F 63% 30.13 in 10.0 mi ESE 5.8 mph - N/A   Clear
9:53 AM 69.1 °F 48.9 °F 49% 30.14 in 10.0 mi ESE 10.4 mph - N/A   Clear
10:53 AM 72.0 °F 48.0 °F 43% 30.15 in 10.0 mi SSE 13.8 mph - N/A   Clear
11:53 AM 72.0 °F 48.9 °F 44% 30.15 in 10.0 mi SSE 10.4 mph 18.4 mph N/A   Clear
12:53 PM 73.0 °F 51.1 °F 46% 30.15 in 10.0 mi South 5.8 mph 17.3 mph N/A   Partly Cloudy
1:53 PM 75.0 °F 51.1 °F 43% 30.12 in 10.0 mi SSE 8.1 mph 18.4 mph N/A   Partly Cloudy
2:53 PM 75.9 °F 50.0 °F 40% 30.10 in 10.0 mi SSE 11.5 mph - N/A   Partly Cloudy
3:53 PM 73.9 °F 50.0 °F 43% 30.07 in 10.0 mi South 9.2 mph - N/A   Partly Cloudy
4:53 PM 75.0 °F 51.1 °F 43% 30.07 in 10.0 mi SSE 15.0 mph - N/A   Scattered Clouds
5:53 PM 73.0 °F 52.0 °F 48% 30.07 in 10.0 mi SSE 11.5 mph - N/A   Mostly Cloudy
6:53 PM 71.1 °F 52.0 °F 51% 30.06 in 10.0 mi SE 10.4 mph - N/A   Clear
7:53 PM 68.0 °F 54.0 °F 61% 30.06 in 10.0 mi SE 8.1 mph - N/A   Clear
8:53 PM 66.9 °F 55.0 °F 66% 30.07 in 10.0 mi SE 9.2 mph - N/A   Clear
9:53 PM 66.0 °F 55.0 °F 68% 30.08 in 10.0 mi SE 5.8 mph - N/A   Clear
10:53 PM 64.9 °F 55.9 °F 73% 30.08 in 10.0 mi SE 8.1 mph - N/A   Clear
11:53 PM 64.0 °F 55.9 °F 75% 30.07 in 10.0 mi SE 6.9 mph - N/A   Clear